Location: Paris
(48.6709°N, 2.3750°E)
Time: 17:48:58
(UTC+02:00)

STARS - Pass Details

Date: 29 June 2022
Orbit: 620 x 637 km, 98.2° (Epoch: 06 August)

Event Time Altitude Azimuth Distance (km) Brightness Sun altitude
Rises 01:11:43 0° 9° (N) 2,939 ? -17.5°
Reaches altitude 10° 01:13:59 10° 3° (N) 2,024 ? -17.5°
Maximum altitude 01:18:12 47° 291° (WNW) 844 ? -17.6°
Enters shadow 01:20:57 20° 225° (SW) 1,463 ? -17.7°
